Year,Month,Day,Hour,Minute,Value (Times are PST for temperature in C)
2018,06,17,00,00,16.70
2018,06,17,00,01,16.70
2018,06,17,00,02,16.70
2018,06,17,00,03,16.70
2018,06,17,00,04,16.70
2018,06,17,00,05,16.70
2018,06,17,00,06,16.70
2018,06,17,00,07,16.70
2018,06,17,00,08,16.70
2018,06,17,00,09,16.70
2018,06,17,00,10,16.70
2018,06,17,00,11,16.70
2018,06,17,00,12,16.70
2018,06,17,00,13,16.70
2018,06,17,00,14,16.70
2018,06,17,00,15,16.70
2018,06,17,00,16,16.70
2018,06,17,00,17,16.70
2018,06,17,00,18,16.70
2018,06,17,00,19,16.70
2018,06,17,00,20,16.70
2018,06,17,00,21,16.70
2018,06,17,00,22,16.70
2018,06,17,00,23,16.60
2018,06,17,00,24,16.60
2018,06,17,00,25,16.50
2018,06,17,00,26,16.40
2018,06,17,00,27,16.40
2018,06,17,00,28,16.40
2018,06,17,00,29,16.40
2018,06,17,00,30,16.40
2018,06,17,00,31,16.30
2018,06,17,00,32,16.30
2018,06,17,00,33,16.30
2018,06,17,00,34,16.30
2018,06,17,00,35,16.30
2018,06,17,00,36,16.30
2018,06,17,00,37,16.20
2018,06,17,00,38,16.20
2018,06,17,00,39,16.20
2018,06,17,00,40,16.20
2018,06,17,00,41,16.20
2018,06,17,00,42,16.20
2018,06,17,00,43,16.10
2018,06,17,00,44,16.10
2018,06,17,00,45,16.10
2018,06,17,00,46,16.10
2018,06,17,00,47,16.10
2018,06,17,00,48,16.10
2018,06,17,00,49,16.00
2018,06,17,00,50,15.90
2018,06,17,00,51,15.90
2018,06,17,00,52,15.80
2018,06,17,00,53,15.80
2018,06,17,00,54,15.80
2018,06,17,00,55,15.80
2018,06,17,00,56,15.70
2018,06,17,00,57,15.60
2018,06,17,00,58,15.60
2018,06,17,00,59,15.60
2018,06,17,01,00,15.60
2018,06,17,01,01,15.60
2018,06,17,01,02,15.60
2018,06,17,01,03,15.60
2018,06,17,01,04,15.60
2018,06,17,01,05,15.60
2018,06,17,01,06,15.60
2018,06,17,01,07,15.50
2018,06,17,01,08,15.50
2018,06,17,01,09,15.50
2018,06,17,01,10,15.50
2018,06,17,01,11,15.50
2018,06,17,01,12,15.40
2018,06,17,01,13,15.40
2018,06,17,01,14,15.40
2018,06,17,01,15,15.40
2018,06,17,01,16,15.30
2018,06,17,01,17,15.30
2018,06,17,01,18,15.30
2018,06,17,01,19,15.30
2018,06,17,01,20,15.30
2018,06,17,01,21,15.30
2018,06,17,01,22,15.30
2018,06,17,01,23,15.30
2018,06,17,01,24,15.30
2018,06,17,01,25,15.30
2018,06,17,01,26,15.30
2018,06,17,01,27,15.30
2018,06,17,01,28,15.20
2018,06,17,01,29,15.20
2018,06,17,01,30,15.20
2018,06,17,01,31,15.20
2018,06,17,01,32,15.20
2018,06,17,01,33,15.20
2018,06,17,01,34,15.20
2018,06,17,01,35,15.20
2018,06,17,01,36,15.10
2018,06,17,01,37,15.10
2018,06,17,01,38,15.10
2018,06,17,01,39,15.10
2018,06,17,01,40,15.10
2018,06,17,01,41,15.10
2018,06,17,01,42,15.00
2018,06,17,01,43,15.00
2018,06,17,01,44,15.00
2018,06,17,01,45,15.00
2018,06,17,01,46,14.90
2018,06,17,01,47,14.90
2018,06,17,01,48,14.90
2018,06,17,01,49,14.90
2018,06,17,01,50,14.80
2018,06,17,01,51,14.80
2018,06,17,01,52,14.80
2018,06,17,01,53,14.80
2018,06,17,01,54,14.80
2018,06,17,01,55,14.80
2018,06,17,01,56,14.80
2018,06,17,01,57,14.70
2018,06,17,01,58,14.70
2018,06,17,01,59,14.70
2018,06,17,02,00,14.70
2018,06,17,02,01,14.60
2018,06,17,02,02,14.60
2018,06,17,02,03,14.60
2018,06,17,02,04,14.60
2018,06,17,02,05,14.60
2018,06,17,02,06,14.50
2018,06,17,02,07,14.50
2018,06,17,02,08,14.50
2018,06,17,02,09,14.50
2018,06,17,02,10,14.40
2018,06,17,02,11,14.40
2018,06,17,02,12,14.40
2018,06,17,02,13,14.40
2018,06,17,02,14,14.30
2018,06,17,02,15,14.30
2018,06,17,02,16,14.30
2018,06,17,02,17,14.30
2018,06,17,02,18,14.30
2018,06,17,02,19,14.20
2018,06,17,02,20,14.20
2018,06,17,02,21,14.20
2018,06,17,02,22,14.20
2018,06,17,02,23,14.20
2018,06,17,02,24,14.20
2018,06,17,02,25,14.20
2018,06,17,02,26,14.20
2018,06,17,02,27,14.20
2018,06,17,02,28,14.20
2018,06,17,02,29,14.20
2018,06,17,02,30,14.10
2018,06,17,02,31,14.10
2018,06,17,02,32,14.10
2018,06,17,02,33,14.10
2018,06,17,02,34,14.00
2018,06,17,02,35,14.00
2018,06,17,02,36,14.00
2018,06,17,02,37,14.00
2018,06,17,02,38,14.00
2018,06,17,02,39,13.90
2018,06,17,02,40,13.90
2018,06,17,02,41,13.90
2018,06,17,02,42,13.90
2018,06,17,02,43,13.90
2018,06,17,02,44,13.90
2018,06,17,02,45,13.90
2018,06,17,02,46,13.90
2018,06,17,02,47,13.90
2018,06,17,02,48,13.90
2018,06,17,02,49,13.80
2018,06,17,02,50,13.80
2018,06,17,02,51,13.80
2018,06,17,02,52,13.80
2018,06,17,02,53,13.80
2018,06,17,02,54,13.80
2018,06,17,02,55,13.70
2018,06,17,02,56,13.70
2018,06,17,02,57,13.70
2018,06,17,02,58,13.70
2018,06,17,02,59,13.70
2018,06,17,03,00,13.60
2018,06,17,03,01,13.60
2018,06,17,03,02,13.60
2018,06,17,03,03,13.50
2018,06,17,03,04,13.50
2018,06,17,03,05,13.50
2018,06,17,03,06,13.40
2018,06,17,03,07,13.40
2018,06,17,03,08,13.40
2018,06,17,03,09,13.30
2018,06,17,03,10,13.30
2018,06,17,03,11,13.30
2018,06,17,03,12,13.30
2018,06,17,03,13,13.30
2018,06,17,03,14,13.30
2018,06,17,03,15,13.20
2018,06,17,03,16,13.20
2018,06,17,03,17,13.20
2018,06,17,03,18,13.20
2018,06,17,03,19,13.20
2018,06,17,03,20,13.20
2018,06,17,03,21,13.10
2018,06,17,03,22,13.10
2018,06,17,03,23,13.10
2018,06,17,03,24,13.10
2018,06,17,03,25,13.10
2018,06,17,03,26,13.10
2018,06,17,03,27,13.10
2018,06,17,03,28,13.10
2018,06,17,03,29,13.10
2018,06,17,03,30,13.00
2018,06,17,03,31,13.00
2018,06,17,03,32,13.00
2018,06,17,03,33,13.00
2018,06,17,03,34,13.00
2018,06,17,03,35,13.00
2018,06,17,03,36,12.90
2018,06,17,03,37,12.90
2018,06,17,03,38,12.90
2018,06,17,03,39,12.80
2018,06,17,03,40,12.80
2018,06,17,03,41,12.80
2018,06,17,03,42,12.80
2018,06,17,03,43,12.80
2018,06,17,03,44,12.80
2018,06,17,03,45,12.80
2018,06,17,03,46,12.80
2018,06,17,03,47,12.80
2018,06,17,03,48,12.80
2018,06,17,03,49,12.80
2018,06,17,03,50,12.80
2018,06,17,03,51,12.70
2018,06,17,03,52,12.70
2018,06,17,03,53,12.70
2018,06,17,03,54,12.70
2018,06,17,03,55,12.70
2018,06,17,03,56,12.70
2018,06,17,03,57,12.60
2018,06,17,03,58,12.60
2018,06,17,03,59,12.60
2018,06,17,04,00,12.60
2018,06,17,04,01,12.60
2018,06,17,04,02,12.60
2018,06,17,04,03,12.60
2018,06,17,04,04,12.60
2018,06,17,04,05,12.60
2018,06,17,04,06,12.60
2018,06,17,04,07,12.60
2018,06,17,04,08,12.60
2018,06,17,04,09,12.60
2018,06,17,04,10,12.50
2018,06,17,04,11,12.50
2018,06,17,04,12,12.50
2018,06,17,04,13,12.50
2018,06,17,04,14,12.50
2018,06,17,04,15,12.50
2018,06,17,04,16,12.50
2018,06,17,04,17,12.50
2018,06,17,04,18,12.50
2018,06,17,04,19,12.40
2018,06,17,04,20,12.40
2018,06,17,04,21,12.40
2018,06,17,04,22,12.30
2018,06,17,04,23,12.30
2018,06,17,04,24,12.30
2018,06,17,04,25,12.30
2018,06,17,04,26,12.30
2018,06,17,04,27,12.20
2018,06,17,04,28,12.20
2018,06,17,04,29,12.20
2018,06,17,04,30,12.20
2018,06,17,04,31,12.20
2018,06,17,04,32,12.20
2018,06,17,04,33,12.20
2018,06,17,04,34,12.20
2018,06,17,04,35,12.20
2018,06,17,04,36,12.10
2018,06,17,04,37,12.10
2018,06,17,04,38,12.10
2018,06,17,04,39,12.10
2018,06,17,04,40,12.00
2018,06,17,04,41,12.00
2018,06,17,04,42,12.00
2018,06,17,04,43,12.00
2018,06,17,04,44,12.00
2018,06,17,04,45,12.00
2018,06,17,04,46,12.00
2018,06,17,04,47,11.90
2018,06,17,04,48,11.90
2018,06,17,04,49,11.90
2018,06,17,04,50,11.90
2018,06,17,04,51,11.90
2018,06,17,04,52,11.90
2018,06,17,04,53,11.80
2018,06,17,04,54,11.80
2018,06,17,04,55,11.80
2018,06,17,04,56,11.80
2018,06,17,04,57,11.80
2018,06,17,04,58,11.80
2018,06,17,04,59,11.80
2018,06,17,05,00,11.80
2018,06,17,05,01,11.80
2018,06,17,05,02,11.80
2018,06,17,05,03,11.80
2018,06,17,05,04,11.80
2018,06,17,05,05,11.80
2018,06,17,05,06,11.80
2018,06,17,05,07,11.80
2018,06,17,05,08,11.80
2018,06,17,05,09,11.80
2018,06,17,05,10,11.80
2018,06,17,05,11,11.80
2018,06,17,05,12,11.80
2018,06,17,05,13,11.80
2018,06,17,05,14,11.70
2018,06,17,05,15,11.70
2018,06,17,05,16,11.70
2018,06,17,05,17,11.70
2018,06,17,05,18,11.70
2018,06,17,05,19,11.70
2018,06,17,05,20,11.70
2018,06,17,05,21,11.70
2018,06,17,05,22,11.70
2018,06,17,05,23,11.70
2018,06,17,05,24,11.70
2018,06,17,05,25,11.60
2018,06,17,05,26,11.60
2018,06,17,05,27,11.60
2018,06,17,05,28,11.60
2018,06,17,05,29,11.60
2018,06,17,05,30,11.60
2018,06,17,05,31,11.60
2018,06,17,05,32,11.60
2018,06,17,05,33,11.60
2018,06,17,05,34,11.60
2018,06,17,05,35,11.60
2018,06,17,05,36,11.60
2018,06,17,05,37,11.60
2018,06,17,05,38,11.60
2018,06,17,05,39,11.60
2018,06,17,05,40,11.60
2018,06,17,05,41,11.60
2018,06,17,05,42,11.60
2018,06,17,05,43,11.60
2018,06,17,05,44,11.60
2018,06,17,05,45,11.60
2018,06,17,05,46,11.60
2018,06,17,05,47,11.60
2018,06,17,05,48,11.60
2018,06,17,05,49,11.60
2018,06,17,05,50,11.60
2018,06,17,05,51,11.60
2018,06,17,05,52,11.60
2018,06,17,05,53,11.60
2018,06,17,05,54,11.60
2018,06,17,05,55,11.60
2018,06,17,05,56,11.60
2018,06,17,05,57,11.60
2018,06,17,05,58,11.70
2018,06,17,05,59,11.70
2018,06,17,06,00,11.80
2018,06,17,06,01,11.80
2018,06,17,06,02,11.80
2018,06,17,06,03,11.80
2018,06,17,06,04,11.90
2018,06,17,06,05,11.90
2018,06,17,06,06,11.90
2018,06,17,06,07,11.90
2018,06,17,06,08,12.00
2018,06,17,06,09,12.00
2018,06,17,06,10,12.10
2018,06,17,06,11,12.20
2018,06,17,06,12,12.20
2018,06,17,06,13,12.30
2018,06,17,06,14,12.40
2018,06,17,06,15,12.50
2018,06,17,06,16,12.50
2018,06,17,06,17,12.60
2018,06,17,06,18,12.70
2018,06,17,06,19,12.80
2018,06,17,06,20,12.80
2018,06,17,06,21,12.80
2018,06,17,06,22,12.90
2018,06,17,06,23,13.00
2018,06,17,06,24,13.10
2018,06,17,06,25,13.10
2018,06,17,06,26,13.20
2018,06,17,06,27,13.30
2018,06,17,06,28,13.30
2018,06,17,06,29,13.30
2018,06,17,06,30,13.40
2018,06,17,06,31,13.50
2018,06,17,06,32,13.60
2018,06,17,06,33,13.60
2018,06,17,06,34,13.70
2018,06,17,06,35,13.70
2018,06,17,06,36,13.70
2018,06,17,06,37,13.80
2018,06,17,06,38,13.90
2018,06,17,06,39,13.90
2018,06,17,06,40,14.00
2018,06,17,06,41,14.10
2018,06,17,06,42,14.20
2018,06,17,06,43,14.20
2018,06,17,06,44,14.20
2018,06,17,06,45,14.30
2018,06,17,06,46,14.40
2018,06,17,06,47,14.50
2018,06,17,06,48,14.50
2018,06,17,06,49,14.60
2018,06,17,06,50,14.70
2018,06,17,06,51,14.80
2018,06,17,06,52,14.80
2018,06,17,06,53,14.80
2018,06,17,06,54,14.90
2018,06,17,06,55,14.90
2018,06,17,06,56,15.00
2018,06,17,06,57,15.00
2018,06,17,06,58,15.10
2018,06,17,06,59,15.20
2018,06,17,07,00,15.20
2018,06,17,07,01,15.20
2018,06,17,07,02,15.30
2018,06,17,07,03,15.30
2018,06,17,07,04,15.30
2018,06,17,07,05,15.40
2018,06,17,07,06,15.40
2018,06,17,07,07,15.50
2018,06,17,07,08,15.50
2018,06,17,07,09,15.60
2018,06,17,07,10,15.60
2018,06,17,07,11,15.70
2018,06,17,07,12,15.80
2018,06,17,07,13,15.80
2018,06,17,07,14,15.90
2018,06,17,07,15,15.90
2018,06,17,07,16,16.10
2018,06,17,07,17,16.10
2018,06,17,07,18,16.10
2018,06,17,07,19,16.20
2018,06,17,07,20,16.20
2018,06,17,07,21,16.30
2018,06,17,07,22,16.30
2018,06,17,07,23,16.40
2018,06,17,07,24,16.40
2018,06,17,07,25,16.60
2018,06,17,07,26,16.70
2018,06,17,07,27,16.70
2018,06,17,07,28,16.80
2018,06,17,07,29,16.90
2018,06,17,07,30,17.00
2018,06,17,07,31,17.10
2018,06,17,07,32,17.20
2018,06,17,07,33,17.30
2018,06,17,07,34,17.30
2018,06,17,07,35,17.40
2018,06,17,07,36,17.50
2018,06,17,07,37,17.60
2018,06,17,07,38,17.80
2018,06,17,07,39,17.80
2018,06,17,07,40,17.90
2018,06,17,07,41,17.90
2018,06,17,07,42,17.90
2018,06,17,07,43,17.90
2018,06,17,07,44,18.10
2018,06,17,07,45,18.10
2018,06,17,07,46,18.20
2018,06,17,07,47,18.30
2018,06,17,07,48,18.40
2018,06,17,07,49,18.60
2018,06,17,07,50,18.70
2018,06,17,07,51,18.80
2018,06,17,07,52,18.90
2018,06,17,07,53,18.90
2018,06,17,07,54,18.90
2018,06,17,07,55,18.90
2018,06,17,07,56,18.90
2018,06,17,07,57,18.90
2018,06,17,07,58,18.90
2018,06,17,07,59,18.90
2018,06,17,08,00,18.90
2018,06,17,08,01,18.90
2018,06,17,08,02,19.00
2018,06,17,08,03,19.10
2018,06,17,08,04,19.10
2018,06,17,08,05,19.20
2018,06,17,08,06,19.20
2018,06,17,08,07,19.30
2018,06,17,08,08,19.30
2018,06,17,08,09,19.30
2018,06,17,08,10,19.30
2018,06,17,08,11,19.30
2018,06,17,08,12,19.30
2018,06,17,08,13,19.30
2018,06,17,08,14,19.40
2018,06,17,08,15,19.40
2018,06,17,08,16,19.40
2018,06,17,08,17,19.40
2018,06,17,08,18,19.40
2018,06,17,08,19,19.40
2018,06,17,08,20,19.30
2018,06,17,08,21,19.30
2018,06,17,08,22,19.30
2018,06,17,08,23,19.30
2018,06,17,08,24,19.30
2018,06,17,08,25,19.30
2018,06,17,08,26,19.30
2018,06,17,08,27,19.30
2018,06,17,08,28,19.40
2018,06,17,08,29,19.30
2018,06,17,08,30,19.30
2018,06,17,08,31,19.30
2018,06,17,08,32,19.30
2018,06,17,08,33,19.30
2018,06,17,08,34,19.30
2018,06,17,08,35,19.30
2018,06,17,08,36,19.40
2018,06,17,08,37,19.40
2018,06,17,08,38,19.40
2018,06,17,08,39,19.40
2018,06,17,08,40,19.50
2018,06,17,08,41,19.50
2018,06,17,08,42,19.50
2018,06,17,08,43,19.60
2018,06,17,08,44,19.60
2018,06,17,08,45,19.70
2018,06,17,08,46,19.70
2018,06,17,08,47,19.80
2018,06,17,08,48,19.80
2018,06,17,08,49,19.80
2018,06,17,08,50,19.90
2018,06,17,08,51,19.90
2018,06,17,08,52,19.80
2018,06,17,08,53,19.80
2018,06,17,08,54,19.80
2018,06,17,08,55,19.80
2018,06,17,08,56,19.80
2018,06,17,08,57,19.80
2018,06,17,08,58,19.80
2018,06,17,08,59,19.80
2018,06,17,09,00,19.80
2018,06,17,09,01,19.80
2018,06,17,09,02,19.80
2018,06,17,09,03,19.90
2018,06,17,09,04,19.90
2018,06,17,09,05,19.90
2018,06,17,09,06,19.80
2018,06,17,09,07,19.80
2018,06,17,09,08,19.70
2018,06,17,09,09,19.60
2018,06,17,09,10,19.60
2018,06,17,09,11,19.60
2018,06,17,09,12,19.50
2018,06,17,09,13,19.50
2018,06,17,09,14,19.50
2018,06,17,09,15,19.50
2018,06,17,09,16,19.60
2018,06,17,09,17,19.50
2018,06,17,09,18,19.50
2018,06,17,09,19,19.50
2018,06,17,09,20,19.50
2018,06,17,09,21,19.50
2018,06,17,09,22,19.60
2018,06,17,09,23,19.60
2018,06,17,09,24,19.60
2018,06,17,09,25,19.70
2018,06,17,09,26,19.70
2018,06,17,09,27,19.80
2018,06,17,09,28,19.80
2018,06,17,09,29,19.80
2018,06,17,09,30,19.90
2018,06,17,09,31,19.90
2018,06,17,09,32,19.90
2018,06,17,09,33,19.90
2018,06,17,09,34,19.90
2018,06,17,09,35,19.90
2018,06,17,09,36,19.90
2018,06,17,09,37,19.90
2018,06,17,09,38,19.90
2018,06,17,09,39,19.90
2018,06,17,09,40,20.00
2018,06,17,09,41,20.10
2018,06,17,09,42,20.10
2018,06,17,09,43,20.20
2018,06,17,09,44,20.20
2018,06,17,09,45,20.20
2018,06,17,09,46,20.30
2018,06,17,09,47,20.30
2018,06,17,09,48,20.40
2018,06,17,09,49,20.40
2018,06,17,09,50,20.40
2018,06,17,09,51,20.50
2018,06,17,09,52,20.50
2018,06,17,09,53,20.50
2018,06,17,09,54,20.50
2018,06,17,09,55,20.50
2018,06,17,09,56,20.50
2018,06,17,09,57,20.50
2018,06,17,09,58,20.60
2018,06,17,09,59,20.60
2018,06,17,10,00,20.50
2018,06,17,10,01,20.60
2018,06,17,10,02,20.60
2018,06,17,10,03,20.70
2018,06,17,10,04,20.70
2018,06,17,10,05,20.80
2018,06,17,10,06,20.80
2018,06,17,10,07,20.70
2018,06,17,10,08,20.70
2018,06,17,10,09,20.70
2018,06,17,10,10,20.70
2018,06,17,10,11,20.70
2018,06,17,10,12,20.80
2018,06,17,10,13,20.80
2018,06,17,10,14,20.80
2018,06,17,10,15,20.80
2018,06,17,10,16,20.80
2018,06,17,10,17,20.80
2018,06,17,10,18,20.90
2018,06,17,10,19,20.90
2018,06,17,10,20,20.90
2018,06,17,10,21,20.90
2018,06,17,10,22,20.90
2018,06,17,10,23,20.80
2018,06,17,10,24,20.80
2018,06,17,10,25,20.80
2018,06,17,10,26,20.80
2018,06,17,10,27,20.80
2018,06,17,10,28,20.80
2018,06,17,10,29,20.80
2018,06,17,10,30,20.80
2018,06,17,10,31,20.80
2018,06,17,10,32,20.80
2018,06,17,10,33,20.80
2018,06,17,10,34,20.80
2018,06,17,10,35,20.80
2018,06,17,10,36,20.80
2018,06,17,10,37,20.80
2018,06,17,10,38,20.80
2018,06,17,10,39,20.90
2018,06,17,10,40,20.90
2018,06,17,10,41,20.90
2018,06,17,10,42,21.00
2018,06,17,10,43,21.00
2018,06,17,10,44,21.10
2018,06,17,10,45,21.10
2018,06,17,10,46,21.10
2018,06,17,10,47,21.10
2018,06,17,10,48,21.10
2018,06,17,10,49,21.10
2018,06,17,10,50,21.10
2018,06,17,10,51,21.10
2018,06,17,10,52,21.10
2018,06,17,10,53,21.10
2018,06,17,10,54,21.10
2018,06,17,10,55,21.10
2018,06,17,10,56,21.10
2018,06,17,10,57,21.10
2018,06,17,10,58,21.00
2018,06,17,10,59,21.00
2018,06,17,11,00,21.00
2018,06,17,11,01,21.00
2018,06,17,11,02,21.00
2018,06,17,11,03,21.00
2018,06,17,11,04,21.10
2018,06,17,11,05,21.10
2018,06,17,11,06,21.10
2018,06,17,11,07,21.10
2018,06,17,11,08,21.20
2018,06,17,11,09,21.20
2018,06,17,11,10,21.10
2018,06,17,11,11,21.10
2018,06,17,11,12,21.20
2018,06,17,11,13,21.20
2018,06,17,11,14,21.20
2018,06,17,11,15,21.20
2018,06,17,11,16,21.20
2018,06,17,11,17,21.20
2018,06,17,11,18,21.20
2018,06,17,11,19,21.20
2018,06,17,11,20,21.30
2018,06,17,11,21,21.30
2018,06,17,11,22,21.30
2018,06,17,11,23,21.40
2018,06,17,11,24,21.50
2018,06,17,11,25,21.60
2018,06,17,11,26,21.60
2018,06,17,11,27,21.60
2018,06,17,11,28,21.60
2018,06,17,11,29,21.60
2018,06,17,11,30,21.60
2018,06,17,11,31,21.60
2018,06,17,11,32,21.50
2018,06,17,11,33,21.40
2018,06,17,11,34,21.30
2018,06,17,11,35,21.40
2018,06,17,11,36,21.50
2018,06,17,11,37,21.60
2018,06,17,11,38,21.60
2018,06,17,11,39,21.70
2018,06,17,11,40,21.70
2018,06,17,11,41,21.70
2018,06,17,11,42,21.70
2018,06,17,11,43,21.80
2018,06,17,11,44,21.90
2018,06,17,11,45,22.00
2018,06,17,11,46,22.00
2018,06,17,11,47,22.10
2018,06,17,11,48,22.10
2018,06,17,11,49,22.10
2018,06,17,11,50,22.20
2018,06,17,11,51,22.20
2018,06,17,11,52,22.30
2018,06,17,11,53,22.30
2018,06,17,11,54,22.20
2018,06,17,11,55,22.20
2018,06,17,11,56,22.20
2018,06,17,11,57,22.20
2018,06,17,11,58,22.10
2018,06,17,11,59,22.10
2018,06,17,12,00,22.10
2018,06,17,12,01,22.10
2018,06,17,12,02,22.10
2018,06,17,12,03,22.20
2018,06,17,12,04,22.30
2018,06,17,12,05,22.40
2018,06,17,12,06,22.50
2018,06,17,12,07,22.60
2018,06,17,12,08,22.60
2018,06,17,12,09,22.60
2018,06,17,12,10,22.50
2018,06,17,12,11,22.50
2018,06,17,12,12,22.60
2018,06,17,12,13,22.60
2018,06,17,12,14,22.60
2018,06,17,12,15,22.60
2018,06,17,12,16,22.60
2018,06,17,12,17,22.70
2018,06,17,12,18,22.70
2018,06,17,12,19,22.70
2018,06,17,12,20,22.80
2018,06,17,12,21,22.80
2018,06,17,12,22,22.90
2018,06,17,12,23,22.90
2018,06,17,12,24,23.00
2018,06,17,12,25,23.10
2018,06,17,12,26,23.20
2018,06,17,12,27,23.20
2018,06,17,12,28,23.20
2018,06,17,12,29,23.30
2018,06,17,12,30,23.30
2018,06,17,12,31,23.30
2018,06,17,12,32,23.40
2018,06,17,12,33,23.60
2018,06,17,12,34,23.60
2018,06,17,12,35,23.70
2018,06,17,12,36,23.70
2018,06,17,12,37,23.70
2018,06,17,12,38,23.70
2018,06,17,12,39,23.70
2018,06,17,12,40,23.70
2018,06,17,12,41,23.70
2018,06,17,12,42,23.70
2018,06,17,12,43,23.70
2018,06,17,12,44,23.70
2018,06,17,12,45,23.70
2018,06,17,12,46,23.70
2018,06,17,12,47,23.70
2018,06,17,12,48,23.60
2018,06,17,12,49,23.60
2018,06,17,12,50,23.60
2018,06,17,12,51,23.60
2018,06,17,12,52,23.60
2018,06,17,12,53,23.60
2018,06,17,12,54,23.70
2018,06,17,12,55,23.80
2018,06,17,12,56,23.90
2018,06,17,12,57,24.00
2018,06,17,12,58,24.10
2018,06,17,12,59,24.10
2018,06,17,13,00,24.20
2018,06,17,13,01,24.30
2018,06,17,13,02,24.40
2018,06,17,13,03,24.50
2018,06,17,13,04,24.50
2018,06,17,13,05,24.60
2018,06,17,13,06,24.60
2018,06,17,13,07,24.60
2018,06,17,13,08,24.60
2018,06,17,13,09,24.50
2018,06,17,13,10,24.50
2018,06,17,13,11,24.40
2018,06,17,13,12,24.20
2018,06,17,13,13,24.20
2018,06,17,13,14,24.10
2018,06,17,13,15,24.10
2018,06,17,13,16,24.10
2018,06,17,13,17,24.10
2018,06,17,13,18,24.10
2018,06,17,13,19,24.10
2018,06,17,13,20,24.10
2018,06,17,13,21,24.10
2018,06,17,13,22,24.10
2018,06,17,13,23,24.30
2018,06,17,13,24,24.40
2018,06,17,13,25,24.40
2018,06,17,13,26,24.50
2018,06,17,13,27,24.50
2018,06,17,13,28,24.60
2018,06,17,13,29,24.60
2018,06,17,13,30,24.70
2018,06,17,13,31,24.70
2018,06,17,13,32,24.80
2018,06,17,13,33,24.70
2018,06,17,13,34,24.80
2018,06,17,13,35,24.80
2018,06,17,13,36,24.80
2018,06,17,13,37,24.80
2018,06,17,13,38,24.80
2018,06,17,13,39,24.80
2018,06,17,13,40,24.90
2018,06,17,13,41,24.90
2018,06,17,13,42,24.90
2018,06,17,13,43,25.00
2018,06,17,13,44,25.00
2018,06,17,13,45,25.00
2018,06,17,13,46,25.10
2018,06,17,13,47,25.10
2018,06,17,13,48,25.00
2018,06,17,13,49,25.00
2018,06,17,13,50,24.90
2018,06,17,13,51,24.90
2018,06,17,13,52,24.80
2018,06,17,13,53,24.80
2018,06,17,13,54,24.70
2018,06,17,13,55,24.70
2018,06,17,13,56,24.70
2018,06,17,13,57,24.70
2018,06,17,13,58,24.70
2018,06,17,13,59,24.70
2018,06,17,14,00,24.60
2018,06,17,14,01,24.60
2018,06,17,14,02,24.70
2018,06,17,14,03,24.70
2018,06,17,14,04,24.70
2018,06,17,14,05,24.80
2018,06,17,14,06,24.80
2018,06,17,14,07,24.90
2018,06,17,14,08,24.90
2018,06,17,14,09,24.90
2018,06,17,14,10,24.90
2018,06,17,14,11,25.00
2018,06,17,14,12,25.00
2018,06,17,14,13,25.00
2018,06,17,14,14,25.00
2018,06,17,14,15,25.00
2018,06,17,14,16,25.00
2018,06,17,14,17,25.10
2018,06,17,14,18,25.10
2018,06,17,14,19,25.10
2018,06,17,14,20,25.10
2018,06,17,14,21,25.10
2018,06,17,14,22,25.00
2018,06,17,14,23,25.00
2018,06,17,14,24,24.90
2018,06,17,14,25,24.90
2018,06,17,14,26,24.90
2018,06,17,14,27,24.90
2018,06,17,14,28,24.90
2018,06,17,14,29,24.90
2018,06,17,14,30,24.90
2018,06,17,14,31,24.90
2018,06,17,14,32,24.90
2018,06,17,14,33,24.90
2018,06,17,14,34,24.90
2018,06,17,14,35,24.90
2018,06,17,14,36,25.00
2018,06,17,14,37,25.00
2018,06,17,14,38,25.00
2018,06,17,14,39,24.90
2018,06,17,14,40,24.90
2018,06,17,14,41,24.80
2018,06,17,14,42,24.60
2018,06,17,14,43,24.60
2018,06,17,14,44,24.50
2018,06,17,14,45,24.50
2018,06,17,14,46,24.40
2018,06,17,14,47,24.40
2018,06,17,14,48,24.50
2018,06,17,14,49,24.60
2018,06,17,14,50,24.60
2018,06,17,14,51,24.60
2018,06,17,14,52,24.60
2018,06,17,14,53,24.60
2018,06,17,14,54,24.60
2018,06,17,14,55,24.60
2018,06,17,14,56,24.70
2018,06,17,14,57,24.80
2018,06,17,14,58,24.90
2018,06,17,14,59,25.10
2018,06,17,15,00,25.20
2018,06,17,15,01,25.30
2018,06,17,15,02,25.40
2018,06,17,15,03,25.40
2018,06,17,15,04,25.40
2018,06,17,15,05,25.40
2018,06,17,15,06,25.30
2018,06,17,15,07,25.30
2018,06,17,15,08,25.30
2018,06,17,15,09,25.40
2018,06,17,15,10,25.40
2018,06,17,15,11,25.50
2018,06,17,15,12,25.50
2018,06,17,15,13,25.60
2018,06,17,15,14,25.60
2018,06,17,15,15,25.60
2018,06,17,15,16,25.70
2018,06,17,15,17,25.80
2018,06,17,15,18,25.80
2018,06,17,15,19,25.90
2018,06,17,15,20,25.90
2018,06,17,15,21,26.00
2018,06,17,15,22,26.10
2018,06,17,15,23,26.20
2018,06,17,15,24,26.30
2018,06,17,15,25,26.40
2018,06,17,15,26,26.40
2018,06,17,15,27,26.50
2018,06,17,15,28,26.60
2018,06,17,15,29,26.60
2018,06,17,15,30,26.40
2018,06,17,15,31,26.40
2018,06,17,15,32,26.40
2018,06,17,15,33,26.40
2018,06,17,15,34,26.40
2018,06,17,15,35,26.40
2018,06,17,15,36,26.50
2018,06,17,15,37,26.60
2018,06,17,15,38,26.60
2018,06,17,15,39,26.60
2018,06,17,15,40,26.60
2018,06,17,15,41,26.60
2018,06,17,15,42,26.60
2018,06,17,15,43,26.60
2018,06,17,15,44,26.60
2018,06,17,15,45,26.60
2018,06,17,15,46,26.60
2018,06,17,15,47,26.60
2018,06,17,15,48,26.60
2018,06,17,15,49,26.60
2018,06,17,15,50,26.60
2018,06,17,15,51,26.60
2018,06,17,15,52,26.60
2018,06,17,15,53,26.60
2018,06,17,15,54,26.60
2018,06,17,15,55,26.70
2018,06,17,15,56,26.70
2018,06,17,15,57,26.70
2018,06,17,15,58,26.70
2018,06,17,15,59,26.80
2018,06,17,16,00,26.90
2018,06,17,16,01,27.00
2018,06,17,16,02,27.10
2018,06,17,16,03,27.10
2018,06,17,16,04,27.20
2018,06,17,16,05,27.20
2018,06,17,16,06,27.30
2018,06,17,16,07,27.30
2018,06,17,16,08,27.40
2018,06,17,16,09,27.40
2018,06,17,16,10,27.40
2018,06,17,16,11,27.40
2018,06,17,16,12,27.40
2018,06,17,16,13,27.40
2018,06,17,16,14,27.40
2018,06,17,16,15,27.40
2018,06,17,16,16,27.40
2018,06,17,16,17,27.50
2018,06,17,16,18,27.60
2018,06,17,16,19,27.60
2018,06,17,16,20,27.60
2018,06,17,16,21,27.60
2018,06,17,16,22,27.50
2018,06,17,16,23,27.60
2018,06,17,16,24,27.60
2018,06,17,16,25,27.60
2018,06,17,16,26,27.50
2018,06,17,16,27,27.40
2018,06,17,16,28,27.40
2018,06,17,16,29,27.50
2018,06,17,16,30,27.60
2018,06,17,16,31,27.60
2018,06,17,16,32,27.60
2018,06,17,16,33,27.70
2018,06,17,16,34,27.80
2018,06,17,16,35,27.90
2018,06,17,16,36,28.00
2018,06,17,16,37,28.00
2018,06,17,16,38,28.10
2018,06,17,16,39,28.10
2018,06,17,16,40,28.00
2018,06,17,16,41,27.90
2018,06,17,16,42,27.90
2018,06,17,16,43,27.80
2018,06,17,16,44,27.80
2018,06,17,16,45,27.70
2018,06,17,16,46,27.70
2018,06,17,16,47,27.70
2018,06,17,16,48,27.60
2018,06,17,16,49,27.40
2018,06,17,16,50,27.30
2018,06,17,16,51,27.30
2018,06,17,16,52,27.30
2018,06,17,16,53,27.20
2018,06,17,16,54,27.20
2018,06,17,16,55,27.20
2018,06,17,16,56,27.20
2018,06,17,16,57,27.10
2018,06,17,16,58,27.10
2018,06,17,16,59,27.10
2018,06,17,17,00,27.10
2018,06,17,17,01,27.00
2018,06,17,17,02,26.90
2018,06,17,17,03,26.90
2018,06,17,17,04,26.90
2018,06,17,17,05,26.90
2018,06,17,17,06,26.90
2018,06,17,17,07,26.90
2018,06,17,17,08,26.90
2018,06,17,17,09,27.00
2018,06,17,17,10,27.10
2018,06,17,17,11,27.10
2018,06,17,17,12,27.20
2018,06,17,17,13,27.20
2018,06,17,17,14,27.30
2018,06,17,17,15,27.30
2018,06,17,17,16,27.40
2018,06,17,17,17,27.40
2018,06,17,17,18,27.50
2018,06,17,17,19,27.60